RRR4202 EGVN-GVAC

Flight info

Callsign RRR4202
Flight time N/A
Altitude 34000
Route YVL DCT RATKA/M066F340 DCT GUNSO DCT OMOKO T16 NAVIX/N0383F340 DCT KICAS DCT GOSGA UQ143 ORTIS N728 PITAB DCT TFS T770 LIMAL N873 ISOKA DCT GUNET UW11 PINPO PINPO1F
Aircraft A400/H-SDE2E3FGHIJ4J5M1RWXY/LB1D1

Departure

Time N/A
Airport RAF Brize Norton (EGVN)

Arrival

Time 2026-05-09 13:08
Airport Amílcar Cabral International Airport (GVAC)
Time Latitude Longitude Altitude Speed Heading
2026-05-09 12:09 20.95533 -19.65626 33073 ft 405 kts 186°
2026-05-09 12:09 20.92720 -19.65791 33073 ft 405 kts 185°
2026-05-09 12:10 20.81434 -19.66448 33072 ft 406 kts 185°
2026-05-09 12:11 20.75792 -19.66778 33072 ft 406 kts 185°
2026-05-09 12:11 20.70187 -19.67105 33073 ft 406 kts 185°
2026-05-09 12:12 20.64548 -19.67432 33073 ft 406 kts 185°
2026-05-09 12:12 20.58913 -19.67758 33064 ft 406 kts 185°
2026-05-09 12:13 20.53237 -19.68090 33063 ft 406 kts 185°
2026-05-09 12:13 20.47633 -19.68415 33064 ft 405 kts 185°
2026-05-09 12:14 20.42000 -19.68743 33063 ft 405 kts 185°
2026-05-09 12:14 20.36367 -19.69069 33063 ft 406 kts 185°
2026-05-09 12:15 20.30725 -19.69395 33063 ft 405 kts 185°
2026-05-09 12:15 20.25081 -19.69721 33063 ft 405 kts 185°
2026-05-09 12:16 20.19439 -19.70047 33063 ft 406 kts 185°
2026-05-09 12:16 20.13838 -19.70372 33057 ft 406 kts 185°
2026-05-09 12:17 20.08198 -19.70696 33046 ft 406 kts 185°
2026-05-09 12:17 20.02551 -19.71022 33047 ft 406 kts 185°
2026-05-09 12:18 19.96904 -19.71348 33047 ft 406 kts 185°
2026-05-09 12:18 19.91259 -19.71672 33047 ft 406 kts 185°
2026-05-09 12:19 19.85615 -19.71996 33047 ft 406 kts 185°
2026-05-09 12:19 19.79975 -19.72321 33047 ft 406 kts 185°
2026-05-09 12:20 19.74359 -19.72646 33047 ft 406 kts 185°
2026-05-09 12:20 19.68713 -19.72971 33047 ft 406 kts 185°
2026-05-09 12:21 19.63120 -19.73616 33048 ft 403 kts 195°
2026-05-09 12:21 19.58016 -19.75929 33045 ft 399 kts 215°
2026-05-09 12:22 19.53931 -19.79871 33045 ft 397 kts 228°
2026-05-09 12:22 19.50196 -19.84195 33041 ft 398 kts 228°
2026-05-09 12:23 19.46454 -19.88526 33047 ft 398 kts 228°
2026-05-09 12:23 19.42732 -19.92818 33047 ft 398 kts 228°
2026-05-09 12:24 19.38979 -19.97137 33044 ft 398 kts 228°
2026-05-09 12:24 19.35225 -20.01453 33047 ft 398 kts 228°
2026-05-09 12:25 19.31474 -20.05763 33049 ft 398 kts 228°
2026-05-09 12:25 19.28349 -20.09351 33054 ft 398 kts 228°
2026-05-09 12:26 19.24589 -20.13663 33054 ft 398 kts 228°
2026-05-09 12:26 19.20824 -20.17979 33054 ft 398 kts 228°
2026-05-09 12:27 19.17061 -20.22290 33054 ft 399 kts 228°
2026-05-09 12:27 19.13315 -20.26579 33054 ft 399 kts 228°
2026-05-09 12:28 19.09547 -20.30889 33055 ft 399 kts 228°
2026-05-09 12:28 19.05778 -20.35200 33055 ft 399 kts 228°
2026-05-09 12:29 19.02010 -20.39502 33054 ft 399 kts 228°
2026-05-09 12:29 18.98232 -20.43814 33059 ft 399 kts 228°
2026-05-09 12:30 18.94454 -20.48122 33064 ft 399 kts 227°
2026-05-09 12:30 18.88778 -20.54591 33063 ft 400 kts 227°
2026-05-09 12:31 18.83106 -20.61049 33064 ft 400 kts 227°
2026-05-09 12:32 18.79321 -20.65352 33064 ft 400 kts 227°
2026-05-09 12:32 18.75540 -20.69650 33063 ft 399 kts 227°
2026-05-09 12:33 18.71781 -20.73921 33063 ft 400 kts 227°
2026-05-09 12:33 18.67983 -20.78230 33071 ft 400 kts 227°
2026-05-09 12:34 18.64191 -20.82529 33072 ft 400 kts 227°
2026-05-09 12:34 18.60400 -20.86825 33072 ft 400 kts 227°
2026-05-09 12:35 18.56606 -20.91123 33073 ft 400 kts 227°
2026-05-09 12:35 18.52834 -20.95393 33073 ft 400 kts 227°
2026-05-09 12:36 18.49036 -20.99687 33073 ft 400 kts 227°
2026-05-09 12:36 18.45246 -21.03971 33073 ft 400 kts 227°
2026-05-09 12:37 18.41448 -21.08260 33073 ft 400 kts 227°
2026-05-09 12:37 18.37653 -21.12543 33080 ft 400 kts 227°
2026-05-09 12:38 18.33857 -21.16825 33071 ft 400 kts 227°
2026-05-09 12:38 18.30071 -21.21092 33073 ft 400 kts 227°
2026-05-09 12:39 18.26279 -21.25363 33073 ft 400 kts 227°
2026-05-09 12:39 18.22474 -21.29645 33073 ft 400 kts 227°
2026-05-09 12:40 18.18671 -21.33923 33072 ft 400 kts 227°
2026-05-09 12:40 18.14860 -21.38206 33073 ft 401 kts 227°
2026-05-09 12:41 18.11049 -21.42488 33073 ft 400 kts 227°
2026-05-09 12:41 18.07239 -21.46764 33079 ft 400 kts 227°
2026-05-09 12:42 18.03431 -21.51033 33082 ft 401 kts 227°
2026-05-09 12:42 17.99637 -21.55286 33082 ft 400 kts 227°
2026-05-09 12:43 17.95824 -21.59558 33082 ft 401 kts 227°
2026-05-09 12:43 17.92007 -21.63829 33081 ft 401 kts 227°
2026-05-09 12:44 17.88189 -21.68101 33082 ft 401 kts 227°
2026-05-09 12:44 17.84368 -21.72373 33082 ft 401 kts 227°
2026-05-09 12:45 17.80570 -21.76615 33082 ft 401 kts 227°
2026-05-09 12:45 17.76746 -21.80884 33090 ft 400 kts 227°
2026-05-09 12:46 17.72933 -21.85138 33091 ft 400 kts 227°
2026-05-09 12:46 17.69118 -21.89392 32858 ft 399 kts 227°
2026-05-09 12:46 17.67214 -21.91514 32075 ft 399 kts 227°
2026-05-09 12:47 17.65315 -21.93651 31221 ft 402 kts 229°
2026-05-09 12:47 17.63479 -21.95874 30466 ft 404 kts 230°
2026-05-09 12:47 17.61658 -21.98134 29798 ft 406 kts 230°
2026-05-09 12:47 17.59837 -22.00401 29144 ft 406 kts 230°
2026-05-09 12:48 17.58024 -22.02657 28618 ft 403 kts 230°
2026-05-09 12:48 17.56221 -22.04900 28177 ft 401 kts 230°
2026-05-09 12:48 17.54443 -22.07108 27708 ft 400 kts 230°
2026-05-09 12:48 17.52655 -22.09327 27246 ft 397 kts 230°
2026-05-09 12:49 17.50877 -22.11534 26770 ft 395 kts 230°
2026-05-09 12:49 17.49109 -22.13725 26300 ft 392 kts 230°
2026-05-09 12:49 17.47351 -22.15904 25845 ft 390 kts 230°
2026-05-09 12:49 17.45602 -22.18072 25365 ft 387 kts 230°
2026-05-09 12:50 17.43869 -22.20219 24913 ft 385 kts 230°
2026-05-09 12:50 17.42142 -22.22357 24456 ft 383 kts 230°
2026-05-09 12:50 17.40425 -22.24482 24001 ft 380 kts 230°
2026-05-09 12:50 17.38721 -22.26590 23530 ft 378 kts 230°
2026-05-09 12:51 17.37024 -22.28689 23086 ft 376 kts 230°
2026-05-09 12:51 17.35345 -22.30766 22631 ft 373 kts 230°
2026-05-09 12:51 17.33673 -22.32832 22173 ft 370 kts 230°
2026-05-09 12:51 17.32040 -22.34851 21732 ft 367 kts 230°
2026-05-09 12:52 17.30398 -22.36879 21284 ft 363 kts 229°
2026-05-09 12:52 17.28770 -22.38890 20837 ft 361 kts 230°
2026-05-09 12:52 17.27159 -22.40880 20378 ft 358 kts 230°
2026-05-09 12:52 17.25555 -22.42859 19950 ft 355 kts 230°
2026-05-09 12:53 17.23965 -22.44821 19522 ft 352 kts 229°
2026-05-09 12:53 17.22385 -22.46770 19061 ft 349 kts 229°
2026-05-09 12:53 17.20816 -22.48705 18634 ft 347 kts 229°
2026-05-09 12:53 17.19263 -22.50619 18213 ft 344 kts 229°
2026-05-09 12:54 17.17742 -22.52495 17788 ft 342 kts 229°
2026-05-09 12:54 17.16209 -22.54385 17349 ft 339 kts 229°
2026-05-09 12:54 17.14689 -22.56258 16920 ft 336 kts 229°
2026-05-09 12:54 17.13177 -22.58119 16498 ft 334 kts 229°
2026-05-09 12:55 17.11679 -22.59963 16078 ft 331 kts 229°
2026-05-09 12:55 17.10191 -22.61795 15656 ft 329 kts 229°
2026-05-09 12:55 17.08715 -22.63612 15245 ft 327 kts 229°
2026-05-09 12:55 17.07252 -22.65411 14826 ft 324 kts 229°
2026-05-09 12:56 17.05798 -22.67199 14414 ft 322 kts 229°
2026-05-09 12:56 17.04349 -22.68980 14013 ft 320 kts 229°
2026-05-09 12:56 17.02912 -22.70748 13602 ft 318 kts 229°
2026-05-09 12:56 17.01485 -22.72500 13186 ft 316 kts 229°
2026-05-09 12:57 17.00064 -22.74245 12770 ft 314 kts 229°
2026-05-09 12:57 16.98654 -22.75977 12369 ft 311 kts 229°
2026-05-09 12:57 16.97273 -22.77674 11960 ft 310 kts 229°
2026-05-09 12:57 16.95883 -22.79381 11569 ft 308 kts 229°
2026-05-09 12:58 16.94501 -22.81077 11166 ft 306 kts 229°
2026-05-09 12:58 16.93101 -22.82751 10761 ft 306 kts 225°
2026-05-09 12:58 16.91399 -22.84065 10336 ft 305 kts 206°
2026-05-09 12:58 16.89350 -22.84588 9971 ft 303 kts 185°
2026-05-09 12:59 16.87282 -22.84641 9781 ft 296 kts 181°
2026-05-09 12:59 16.85227 -22.84617 9358 ft 295 kts 180°
2026-05-09 12:59 16.83179 -22.84584 9053 ft 293 kts 180°
2026-05-09 12:59 16.81133 -22.84557 8602 ft 294 kts 180°
2026-05-09 13:00 16.79098 -22.84535 8163 ft 292 kts 180°
2026-05-09 13:00 16.77072 -22.84515 7764 ft 290 kts 180°
2026-05-09 13:00 16.75063 -22.84499 7383 ft 288 kts 180°
2026-05-09 13:00 16.73062 -22.84485 6988 ft 287 kts 180°
2026-05-09 13:01 16.71068 -22.84472 6609 ft 285 kts 180°
2026-05-09 13:01 16.69106 -22.84458 6235 ft 284 kts 180°
2026-05-09 13:01 16.67139 -22.84442 5845 ft 282 kts 180°
2026-05-09 13:01 16.65177 -22.84429 5447 ft 281 kts 180°
2026-05-09 13:02 16.63245 -22.84414 5179 ft 272 kts 180°
2026-05-09 13:02 16.61380 -22.84401 4890 ft 265 kts 180°
2026-05-09 13:02 16.59550 -22.84389 4549 ft 261 kts 180°
2026-05-09 13:02 16.57742 -22.84429 4202 ft 259 kts 187°
2026-05-09 13:03 16.56073 -22.85049 3814 ft 258 kts 217°
2026-05-09 13:03 16.54984 -22.86484 3432 ft 254 kts 250°
2026-05-09 13:03 16.54680 -22.88281 3047 ft 251 kts 269°
2026-05-09 13:03 16.54656 -22.90095 2681 ft 250 kts 272°
2026-05-09 13:04 16.54757 -22.91894 2339 ft 248 kts 282°
2026-05-09 13:04 16.55425 -22.93505 2039 ft 242 kts 311°
2026-05-09 13:04 16.56730 -22.94525 1964 ft 235 kts 340°
2026-05-09 13:04 16.58321 -22.94832 1966 ft 233 kts 358°
2026-05-09 13:05 16.59944 -22.94867 1963 ft 233 kts
2026-05-09 13:05 16.61565 -22.94860 1964 ft 233 kts
2026-05-09 13:05 16.63184 -22.94852 1927 ft 231 kts
2026-05-09 13:05 16.64755 -22.94853 1710 ft 221 kts
2026-05-09 13:06 16.66273 -22.94857 1435 ft 212 kts
2026-05-09 13:06 16.67679 -22.94865 1152 ft 192 kts
2026-05-09 13:06 16.68950 -22.94873 913 ft 173 kts
2026-05-09 13:06 16.70073 -22.94881 723 ft 152 kts
2026-05-09 13:07 16.71099 -22.94889 486 ft 144 kts
2026-05-09 13:07 16.72096 -22.94889 268 ft 144 kts
2026-05-09 13:07 16.73068 -22.94895 163 ft 121 kts
2026-05-09 13:07 16.73704 -22.94894 159 ft 65 kts 354°
2026-05-09 13:08 16.74033 -22.94897 159 ft 37 kts 359°
2026-05-09 13:08 16.74223 -22.94886 158 ft 15 kts 43°
2026-05-09 13:08 16.74258 -22.94804 159 ft 12 kts 53°
2026-05-09 13:08 16.74297 -22.94733 159 ft 8 kts 95°
2026-05-09 13:09 16.74253 -22.94699 160 ft 9 kts 169°
2026-05-09 13:09 16.74159 -22.94697 160 ft 18 kts 180°
2026-05-09 13:09 16.74007 -22.94698 159 ft 25 kts 180°
2026-05-09 13:09 16.73838 -22.94696 159 ft 24 kts 181°
2026-05-09 13:10 16.73676 -22.94695 160 ft 23 kts 179°
2026-05-09 13:10 16.73519 -22.94693 160 ft 22 kts 179°
2026-05-09 13:10 16.73366 -22.94690 160 ft 22 kts 180°
2026-05-09 13:10 16.73216 -22.94691 160 ft 21 kts 180°
2026-05-09 13:11 16.73083 -22.94682 160 ft 18 kts 148°
2026-05-09 13:11 16.73107 -22.94592 160 ft 15 kts 13°
2026-05-09 13:11 16.73166 -22.94563 160 ft 8 kts 83°
2026-05-09 13:11 16.73166 -22.94512 160 ft 5 kts 89°
2026-05-09 13:12 16.73166 -22.94505 160 ft 0 kts 89°